Weather History for Inverness, United Kingdom

Change the Weather History Date:

Monday, February 4, 2013

  Actual Average Record
Temperature  
Mean Temperature 38 °F -  
Max Temperature 44 °F 43 °F 53 °F (2000)
Min Temperature 32 °F 31 °F 26 °F (2003)
Degree Days  
Heating Degree Days 27    
Moisture  
Dew Point 32 °F    
Average Humidity 88    
Maximum Humidity 100    
Minimum Humidity 75    
Precipitation  
Precipitation 0.00 in - - ()
Sea Level Pressure  
Sea Level Pressure 29.28 in    
Wind  
Wind Speed 21 mph ()    
Max Wind Speed 33 mph    
Max Gust Speed 46 mph    
Visibility 5.0 miles    
Events Rain , Snow    
Averages and records for this station are not official NWS values.
T = Trace of Precipitation, MM = Missing Value Source: Averaged Metar Reports

Daily Weather History Graph

Daily Weather History Graph

Search for Another Location

Airport:

Trip Planner

Search our weather history database for the weather conditions in past years. The results will help you decide how hot, cold, wet, or windy it might be!

Date:

Astronomy

Feb. 04, 2013 Rise Set
Actual Time 8:11 AM GMT 4:49 PM GMT
Civil Twilight 7:28 AM GMT 5:32 PM GMT
Nautical Twilight 6:42 AM GMT 6:19 PM GMT
Astronomical Twilight 5:57 AM GMT 7:04 PM GMT
Moon 2:45 AM GMT (2/4) 10:44 AM GMT (2/4)
Length of Visible Light 10h 03m
Length of Day
8h 38m
Last Quarter, 40% of the Moon is Illuminated
Feb 4
Last Quarter
Feb 10
New
Feb 17
First Quarter
Feb 25
Full
Mar 4
Last Quarter

Hourly Weather History & Observations

Time (GMT) Temp. Windchill Dew Point Humidity Pressure Visibility Wind Dir Wind Speed Gust Speed Precip Events Conditions
12:20 AM 44.6 °F 36.6 °F 37.4 °F 76% 29.36 in 5.6 mi WSW 19.6 mph - N/A   Scattered Clouds
12:50 AM 42.8 °F 32.9 °F 37.4 °F 81% 29.36 in 6.2 mi West 26.5 mph - N/A   Mostly Cloudy
1:20 AM 42.8 °F 34.3 °F 37.4 °F 81% 29.36 in 6.2 mi WSW 19.6 mph - N/A   Partly Cloudy
1:50 AM 41.0 °F 29.3 °F 37.4 °F 87% 29.36 in - WSW 33.4 mph 46.0 mph N/A Rain Light Rain
2:20 AM 39.2 °F 29.6 °F 35.6 °F 87% 29.36 in 6.2 mi WSW 19.6 mph - N/A   Partly Cloudy
2:50 AM 39.2 °F 27.8 °F 35.6 °F 87% 29.36 in 3.7 mi WSW 27.6 mph 40.3 mph N/A   Drizzle
3:20 AM 39.2 °F 27.6 °F 33.8 °F 81% 29.36 in 6.2 mi West 28.8 mph 41.4 mph N/A Rain Light Rain
3:50 AM 39.2 °F 29.0 °F 33.8 °F 81% 29.36 in 5.0 mi WSW 21.9 mph - N/A   Drizzle
4:20 AM 39.2 °F 29.0 °F 32.0 °F 75% 29.33 in 6.2 mi WSW 21.9 mph 36.8 mph N/A   Scattered Clouds
4:50 AM 37.4 °F 25.6 °F 33.8 °F 87% 29.36 in 6.2 mi West 26.5 mph - N/A   Scattered Clouds
5:20 AM 37.4 °F 27.5 °F 30.2 °F 75% 29.36 in 6.2 mi West 18.4 mph - N/A   Mostly Cloudy
5:50 AM 35.6 °F 24.0 °F 32.0 °F 87% 29.36 in 6.2 mi WSW 23.0 mph - N/A   Unknown
6:20 AM 35.6 °F 23.4 °F 32.0 °F 87% 29.33 in 6.2 mi WSW 25.3 mph - N/A   Drizzle
6:50 AM 35.6 °F 24.0 °F 32.0 °F 87% 29.36 in 6.2 mi WSW 23.0 mph - N/A   Drizzle
7:20 AM 35.6 °F 25.2 °F 32.0 °F 87% 29.36 in 6.2 mi West 18.4 mph - N/A   Scattered Clouds
7:50 AM 35.6 °F 25.9 °F 32.0 °F 87% 29.36 in 6.2 mi SW 16.1 mph - N/A   Scattered Clouds
8:20 AM 37.4 °F 26.4 °F 32.0 °F 81% 29.36 in 3.7 mi West 23.0 mph 35.7 mph N/A Rain Rain
8:50 AM 33.8 °F 22.5 °F 32.0 °F 93% 29.33 in 1.9 mi WSW 19.6 mph - N/A Rain Light Rain
9:20 AM 33.8 °F 20.8 °F 32.0 °F 93% 29.36 in 0.9 mi West 26.5 mph 43.7 mph N/A Snow Snow
11:20 AM 35.6 °F 24.5 °F 32.0 °F 87% 29.33 in 6.2 mi WSW 20.7 mph - N/A   Scattered Clouds
11:50 AM 37.4 °F 27.8 °F 32.0 °F 81% 29.33 in - WSW 17.3 mph - N/A Rain , Snow Light Rain
12:20 PM 37.4 °F 26.4 °F 33.8 °F 87% 29.30 in 6.2 mi WSW 23.0 mph 34.5 mph N/A   Scattered Clouds
12:50 PM 37.4 °F 25.9 °F 30.2 °F 75% 29.30 in 6.2 mi WSW 25.3 mph 36.8 mph N/A   Mostly Cloudy
1:20 PM 35.6 °F 24.5 °F 33.8 °F 93% 29.30 in 6.2 mi SW 20.7 mph - N/A   Scattered Clouds
1:50 PM 35.6 °F 22.5 °F 32.0 °F 87% 29.30 in 1.6 mi WSW 29.9 mph 44.9 mph N/A Snow Snow Showers
2:20 PM 33.8 °F 21.3 °F 33.8 °F 100% 29.27 in 6.2 mi WSW 24.2 mph - N/A   Scattered Clouds
2:50 PM 33.8 °F 19.9 °F 32.0 °F 93% 29.27 in 1.2 mi West 31.1 mph 44.9 mph N/A Snow Snow Showers
3:20 PM 35.6 °F 24.2 °F 32.0 °F 87% 29.27 in 6.2 mi WSW 21.9 mph - N/A   Scattered Clouds
3:50 PM 35.6 °F 24.8 °F 30.2 °F 81% 29.24 in 6.2 mi WSW 19.6 mph - N/A   Scattered Clouds
4:20 PM 33.8 °F 21.0 °F 30.2 °F 87% 29.24 in 1.9 mi West 25.3 mph 40.3 mph N/A Snow Light Snow Showers
4:50 PM 32.0 °F 18.4 °F 32.0 °F 100% 29.24 in 5.0 mi WSW 26.5 mph 38.0 mph N/A Snow Light Snow Showers
5:20 PM 33.8 °F 23.2 °F 32.0 °F 93% 29.24 in 6.2 mi WSW 17.3 mph - N/A   Mostly Cloudy
5:50 PM 33.8 °F 24.3 °F 30.2 °F 87% 29.24 in 6.2 mi WSW 13.8 mph - N/A   Scattered Clouds
6:20 PM 32.0 °F 18.6 °F 30.2 °F 93% 29.24 in 5.0 mi WSW 25.3 mph - N/A Snow Light Snow Showers
6:50 PM 33.8 °F 21.3 °F 30.2 °F 87% 29.21 in 3.7 mi WSW 24.2 mph - N/A Snow Light Snow Showers
7:20 PM 33.8 °F 21.6 °F 30.2 °F 87% 29.21 in 6.2 mi WSW 23.0 mph - N/A Snow Light Snow Showers
7:50 PM 33.8 °F 22.5 °F 30.2 °F 87% 29.21 in 4.3 mi WSW 19.6 mph - N/A Snow Light Snow Showers
8:20 PM 32.0 °F 19.2 °F 32.0 °F 100% 29.18 in 6.2 mi SW 23.0 mph - N/A Snow Light Snow Showers
8:50 PM 32.0 °F 20.5 °F 32.0 °F 100% 29.18 in 6.2 mi SW 18.4 mph - N/A Snow Light Snow Showers
9:20 PM 33.8 °F 21.9 °F 30.2 °F 87% 29.18 in 1.9 mi WSW 21.9 mph 33.4 mph N/A Snow Snow Showers
9:50 PM 32.0 °F 19.2 °F 30.2 °F 93% 29.18 in 5.6 mi SW 23.0 mph - N/A Snow Light Snow
10:20 PM 32.0 °F 20.5 °F 30.2 °F 93% 29.15 in 6.2 mi SW 18.4 mph - N/A   Partly Cloudy
10:50 PM 32.0 °F 20.1 °F 30.2 °F 93% 29.15 in 1.7 mi WSW 19.6 mph - N/A Snow Light Snow
11:20 PM 32.0 °F 20.1 °F 30.2 °F 93% 29.15 in 1.4 mi WSW 19.6 mph - N/A Snow Light Snow
11:50 PM 32.0 °F 21.2 °F 30.2 °F 93% 29.12 in 6.2 mi WSW 16.1 mph - N/A   Partly Cloudy